Location: Kapuskasing
(49.3803°N, 82.4001°W)
Time: 15:18:05
(UTC-05:00)

RS-44 - Pass Details

Date: 21 December 2025
Orbit: 1174 x 1511 km, 82.5° (Epoch: 21 January)

Event Time Altitude Azimuth Distance (km) Brightness Sun altitude
Exits shadow 02:38:48 11° 3° (N) 3,442 ? -53.5°
Drops below altitude 10° 02:39:08 10° 4° (N) 3,548 ? -53.5°
Sets 02:42:05 0° 9° (N) 4,486 ? -53.1°
